EW6230 Weather Reports


time (UTC)temp
F
wind
direction
speed
knots
gust
knots
rain 1hr
in
rain 24hr
in
rain mn
in
humidity
%
barometer
mb
20260902161559 58 236 0.0 0.0 0.00 0.00 0.00 1 1000.4
20260902160048 57 236 0.0 0.0 0.00 0.00 0.00 1 1000.5
20260902154557 57 236 0.0 0.0 0.00 0.00 0.00 1 1000.6
20260902153039 57 236 0.0 0.0 0.00 0.00 0.00 1 1000.7
20260902151534 56 236 0.0 0.0 0.00 0.00 0.00 1 1000.6
20260902150030 56 236 0.0 0.0 0.00 0.00 0.00 1 1000.8
20260902144523 55 236 0.0 0.0 0.00 0.00 0.00 1 1000.9
20260902143023 55 236 0.0 0.0 0.00 0.00 0.00 1 1000.9
20260902141523 55 236 0.0 0.0 0.00 0.00 0.00 1 1001.0
20260902140016 0 0.0 0.0 0.00 0.00 0.00 1000.9
20260902134506 0 0.0 0.0 0.00 0.00 0.00 1001.1
20260902133002 0 0.0 0.0 0.00 0.00 0.00 1001.1
20260902131557 0 0.0 0.0 0.00 0.00 0.00 1001.2
20260902130054 0 0.0 0.0 0.00 0.00 0.00 1001.2
20260902124553 0 0.0 0.0 0.00 0.00 0.00 1001.2
20260902123044 -90 232 0.0 0.0 0.00 0.00 0.00 1 1001.4
20260902121544 54 238 0.0 0.0 0.00 0.00 0.00 1 1001.5
20260902120035 54 238 0.0 0.0 0.00 0.00 0.00 1 1001.7
20260902114531 55 238 0.0 0.0 0.00 0.00 0.00 1 1001.8
20260902113026 55 238 0.0 0.0 0.00 0.00 0.00 1 1001.9
20260902111523 55 238 0.0 0.0 0.00 0.00 0.00 1 1002.1
20260902110017 55 238 0.0 0.0 0.00 0.00 0.00 1 1002.2
20260902104515 55 238 0.0 0.0 0.00 0.00 0.00 1 1002.3
20260902103008 55 238 0.0 0.0 0.00 0.00 0.00 1 1002.4
20260902101512 55 238 0.0 0.0 0.00 0.00 0.00 1 1002.6
20260902100101 55 238 0.0 0.0 0.00 0.00 0.00 1 1002.7
20260902094555 55 238 0.0 0.0 0.00 0.00 0.00 1 1003.0
20260902093118 55 238 0.0 0.0 0.00 0.00 0.00 1 1003.1
20260902091553 55 238 0.0 0.0 0.00 0.00 0.00 1 1003.4
20260902090048 55 238 0.0 0.0 0.00 0.00 0.00 1 1003.4
20260902084550 55 238 0.0 0.0 0.00 0.00 0.00 1 1003.5
20260902083046 55 238 0.0 0.0 0.00 0.00 0.00 1 1003.6
20260902081533 55 238 0.0 0.0 0.00 0.00 0.00 1 1003.6
20260902080028 55 238 0.0 0.0 0.00 0.00 0.00 1 1003.8
20260902074524 55 238 0.0 0.0 0.00 0.00 0.00 1 1003.9
20260902073019 56 238 0.0 0.0 0.00 0.00 0.00 1 1004.1
20260902071514 56 238 0.0 0.0 0.00 0.00 0.00 1 1004.3
20260902070010 57 238 0.0 0.0 0.00 0.00 0.00 1 1004.3
20260902064511 57 238 0.0 0.9 0.00 0.00 0.00 1 1004.4
20260902063001 58 238 0.0 0.0 0.00 0.00 0.00 1 1004.5
20260902061557 58 238 0.0 0.0 0.00 0.00 0.00 1 1004.5
20260902060105 58 238 0.0 0.0 0.00 0.00 0.00 1 1004.6
20260902054548 59 229 0.0 0.9 0.00 0.00 0.00 5 1004.7
20260902053044 59 229 0.0 0.0 0.00 0.00 0.00 10 1004.8
20260902051542 60 229 0.0 0.0 0.00 0.00 0.00 12 1004.9
20260902050042 60 229 0.0 0.0 0.00 0.00 0.00 14 1005.0
20260902044531 60 229 0.0 0.0 0.00 0.00 0.00 15 1005.1
20260902043026 60 229 0.0 0.0 0.00 0.00 0.00 17 1005.1
20260902041522 60 229 0.0 0.0 0.00 0.00 0.00 21 1005.2
20260902040018 60 229 0.0 0.0 0.00 0.00 0.00 27 1005.2
20260902034514 60 229 0.0 0.0 0.00 0.00 0.00 23 1005.1
20260902033008 61 229 0.0 0.0 0.00 0.00 0.00 20 1004.9
20260902031504 61 120 0.0 0.0 0.00 0.00 0.00 31 1005.1
20260902024608 62 120 0.0 0.0 0.00 0.00 0.00 44 1004.9
20260902023056 62 120 0.0 0.0 0.00 0.00 0.00 44 1005.1
20260902021553 62 120 0.0 0.0 0.00 0.00 0.00 43 1005.2
20260902020045 62 120 0.0 0.0 0.00 0.00 0.00 45 1005.2
20260902014543 62 120 0.0 0.0 0.00 0.00 0.00 35 1005.3
20260902013039 62 120 0.0 0.0 0.00 0.00 0.00 38 1005.2
20260902011533 62 120 0.0 0.0 0.00 0.00 0.00 32 1005.4
20260902010029 62 120 0.0 0.0 0.00 0.00 0.00 34 1005.3
20260902004527 63 120 0.0 0.0 0.00 0.00 0.00 30 1005.3
20260902003028 62 120 0.0 0.0 0.00 0.00 0.00 30 1005.4
20260902001515 62 120 0.0 0.0 0.00 0.00 0.00 31 1005.5
20260902000013 62 120 0.0 0.0 0.00 0.00 0.00 30 1005.3
20260901234506 62 120 0.0 0.0 0.00 0.00 0.00 31 1005.4
20260901233002 62 120 0.0 0.0 0.00 0.00 0.00 40 1005.4
20260901231600 62 44 0.0 0.0 0.00 0.00 0.00 35 1005.4
20260901230054 62 44 0.0 0.0 0.00 0.00 0.00 31 1005.4
20260901224549 62 44 0.0 0.9 0.00 0.00 0.00 35 1005.3
20260901223048 62 44 0.0 0.0 0.00 0.00 0.00 29 1005.4
20260901221540 61 44 0.0 0.0 0.00 0.00 0.00 28 1005.4
20260901220039 62 44 0.0 0.0 0.00 0.00 0.00 28 1005.5
20260901214534 62 44 0.0 0.0 0.00 0.00 0.00 27 1005.5
20260901213039 62 42 0.0 0.0 0.00 0.00 0.00 29 1005.6
20260901211523 61 42 0.0 0.0 0.00 0.00 0.00 27 1005.8
20260901210019 61 42 0.0 0.0 0.00 0.00 0.00 25 1005.8
20260901204515 61 42 0.0 0.9 0.00 0.00 0.00 29 1005.9
20260901203009 62 278 0.0 0.9 0.00 0.00 0.00 38 1005.9
20260901201505 62 277 0.0 0.9 0.00 0.00 0.00 44 1005.9
20260901200100 63 264 0.0 0.9 0.00 0.00 0.00 50 1005.9
20260901194559 65 264 0.0 0.9 0.00 0.00 0.00 58 1005.9
20260901193056 65 336 0.0 0.9 0.00 0.00 0.00 55 1005.9
20260901191547 65 193 0.0 0.0 0.00 0.00 0.00 56 1006.0
20260901190046 66 193 0.0 0.0 0.00 0.00 0.00 60 1005.9
20260901184545 67 193 0.0 0.0 0.00 0.00 0.00 59 1005.8
20260901183036 66 146 0.0 0.9 0.00 0.00 0.00 52 1005.9
20260901181533 65 145 0.0 0.0 0.00 0.00 0.00 46 1005.9
20260901180025 64 148 0.0 0.0 0.00 0.00 0.00 26 1005.9
20260901174520 62 148 0.0 0.9 0.00 0.00 0.00 12 1005.8
20260901173015 60 247 0.0 0.9 0.00 0.00 0.00 1 1005.9
20260901171512 59 248 0.0 0.0 0.00 0.00 0.00 1 1005.9
20260901170007 58 248 0.0 0.0 0.00 0.00 0.00 1 1005.9
20260901164502 58 247 0.0 0.0 0.00 0.00 0.00 1 1005.8
20260901163058 58 248 0.0 0.0 0.00 0.00 0.00 1 1005.9